User: anonymous   Login
Location: �mondeville
(49.4591°N, 1.3431°W)
Time: 19:45:16
(UTC+00:00)
Language:

Cosmos 2219 Rocket - Orbit

View from above orbital plane
View from above orbital plane
View from above satellite
View from above satellite

Ground track
Ground track

The orbit data is extracted from the following two-line orbital elements,

1 22220U 92076B   19344.40182439  .00000127  00000-0  87971-4 0  9990
2 22220  70.9986 311.6523 0014104 323.3090 148.8801 14.16448943399094
Epoch (UTC): 10 December 2019 09:38:37
Eccentricity: 0.0014104
inclination: 70.9986°
perigee height: 827 km
apogee height: 847 km
right ascension of ascending node: 311.6523°
argument of perigee: 323.3090°
revolutions per day: 14.16448943
mean anomaly at epoch: 148.8801°
orbit number at epoch: 39909

The dashed part of the orbit path shows where the satellite is in the earth's shadow,  

DLR